Total_Precipitation_Accumulation
1.49 1.82 2.26 3.03 3.37 3.85 3.78 3.50 3.24 3.15 3.10 3.11 3.16 3.16 3.29 3.44 3.56 3.56 3.34 3.23 3.13 3.12 3.26 3.20 3.11 2.92 2.87 2.90 2.84 2.72 2.63 2.49 2.46 2.33 2.03 1.65 1.33 1.19 1.15 1.22 1.25 1.21 1.22
1.60 2.14 2.53 2.99 3.18 3.27 3.39 3.64 3.63 3.53 3.37 3.39 3.68 4.09 4.33 4.30 4.32 4.23 4.15 3.98 3.82 3.74 3.68 3.62 3.36 3.12 2.95 2.82 2.71 2.59 2.50 2.36 2.34 2.35 2.28 1.94 1.62 1.28 1.06 1.16 1.21 1.19 1.24
1.49 1.96 2.37 2.73 3.05 3.34 3.43 3.63 3.67 3.76 3.91 4.09 4.28 4.75 5.07 5.01 4.81 4.39 4.21 4.02 3.75 3.60 3.49 3.42 3.27 3.05 2.88 2.75 2.74 2.68 2.60 2.47 2.43 2.43 2.49 2.30 1.88 1.46 1.20 1.09 1.13 1.19 1.25
1.46 1.66 1.92 2.22 2.58 2.86 3.11 3.32 3.44 3.66 4.10 4.70 5.02 5.13 5.28 5.18 4.98 4.64 4.28 3.92 3.60 3.37 3.23 3.22 3.14 2.98 2.77 2.61 2.49 2.47 2.51 2.58 2.47 2.34 2.16 2.04 1.85 1.72 1.48 1.28 1.19 1.17 1.18
1.37 1.48 1.47 1.73 2.14 2.38 2.54 2.83 3.14 3.54 4.14 4.67 5.09 5.35 5.28 5.04 4.82 4.40 4.05 3.71 3.43 3.13 2.96 2.90 2.79 2.61 2.45 2.30 2.18 2.12 2.15 2.22 2.25 2.22 2.13 2.04 1.90 1.76 1.62 1.48 1.37 1.30 1.20
1.22 1.27 1.29 1.40 1.66 1.89 2.11 2.36 2.77 3.41 3.87 4.32 4.74 4.87 4.89 4.79 4.56 4.16 3.83 3.53 3.24 2.94 2.69 2.44 2.34 2.29 2.11 1.88 1.77 1.72 1.72 1.77 1.86 1.95 1.95 1.87 1.83 1.78 1.77 1.65 1.51 1.45 1.39
1.13 1.27 1.25 1.31 1.55 1.79 2.06 2.34 2.75 3.23 3.54 3.69 3.91 4.13 4.18 4.14 4.12 3.98 3.67 3.30 2.88 2.49 2.27 2.07 1.94 1.86 1.80 1.68 1.56 1.49 1.41 1.40 1.48 1.54 1.66 1.69 1.63 1.60 1.68 1.77 1.71 1.55 1.42
1.20 1.26 1.34 1.43 1.65 1.82 1.96 2.17 2.44 2.82 3.01 3.02 3.16 3.38 3.47 3.45 3.38 3.18 2.84 2.51 2.23 2.01 1.81 1.67 1.53 1.37 1.26 1.22 1.23 1.27 1.26 1.24 1.28 1.30 1.42 1.51 1.52 1.53 1.55 1.60 1.74 1.73 1.53
1.17 1.25 1.32 1.44 1.64 1.76 1.89 1.94 1.98 2.19 2.35 2.40 2.45 2.46 2.46 2.45 2.37 2.25 2.07 1.89 1.70 1.51 1.39 1.29 1.24 1.14 1.07 1.04 1.04 1.07 1.12 1.13 1.14 1.17 1.24 1.32 1.31 1.34 1.41 1.47 1.58 1.70 1.65
1.14 1.22 1.27 1.30 1.31 1.39 1.54 1.61 1.54 1.65 1.73 1.70 1.71 1.72 1.77 1.86 1.80 1.58 1.47 1.41 1.33 1.21 1.12 1.06 1.03 0.98 0.96 0.97 1.05 1.06 1.07 1.08 1.05 1.03 1.02 1.03 1.02 1.06 1.12 1.22 1.33 1.45 1.54
1.14 1.17 1.22 1.19 1.08 1.05 1.11 1.26 1.31 1.29 1.36 1.42 1.46 1.38 1.36 1.36 1.36 1.29 1.17 1.12 1.04 0.97 0.95 0.90 0.86 0.86 0.89 0.90 0.94 0.93 0.91 0.86 0.82 0.81 0.82 0.86 0.89 0.94 0.96 1.00 1.14 1.34 1.47
1.30 1.25 1.31 1.27 1.16 1.09 1.06 1.11 1.19 1.21 1.18 1.16 1.21 1.21 1.14 1.06 1.05 1.05 1.00 0.93 0.90 0.87 0.86 0.80 0.72 0.67 0.66 0.67 0.69 0.70 0.74 0.76 0.73 0.76 0.80 0.81 0.82 0.83 0.90 0.96 1.03 1.18 1.36
1.52 1.44 1.38 1.26 1.16 1.11 1.04 0.99 1.02 1.06 1.02 0.93 0.93 0.94 0.94 0.89 0.87 0.88 0.89 0.84 0.81 0.79 0.74 0.71 0.68 0.59 0.56 0.54 0.53 0.55 0.61 0.64 0.64 0.69 0.74 0.78 0.89 0.88 0.89 0.95 0.97 1.07 1.19
1.57 1.45 1.37 1.25 1.17 1.13 1.08 1.05 1.00 0.91 0.86 0.82 0.83 0.82 0.86 0.88 0.83 0.77 0.74 0.73 0.74 0.74 0.73 0.72 0.62 0.52 0.45 0.44 0.43 0.44 0.47 0.49 0.53 0.61 0.67 0.71 0.83 0.90 0.95 0.95 0.97 1.01 1.14
1.64 1.53 1.46 1.39 1.30 1.27 1.21 1.15 1.04 0.94 0.86 0.81 0.79 0.83 0.88 0.91 0.88 0.84 0.78 0.73 0.70 0.67 0.68 0.69 0.64 0.55 0.45 0.38 0.37 0.38 0.42 0.50 0.55 0.58 0.60 0.64 0.74 0.82 0.82 0.77 0.81 0.96 1.16
1.87 1.89 1.87 1.78 1.62 1.48 1.39 1.27 1.11 1.00 0.93 0.91 0.89 0.90 0.90 0.86 0.84 0.80 0.76 0.73 0.69 0.66 0.63 0.63 0.61 0.55 0.42 0.40 0.40 0.38 0.44 0.51 0.57 0.60 0.61 0.59 0.60 0.59 0.62 0.68 0.73 0.84 1.09
2.18 2.22 2.17 2.05 1.85 1.73 1.63 1.50 1.31 1.16 1.10 1.05 0.99 0.94 0.88 0.79 0.74 0.68 0.69 0.71 0.68 0.63 0.59 0.56 0.59 0.56 0.47 0.43 0.40 0.40 0.46 0.56 0.62 0.65 0.65 0.54 0.47 0.56 0.63 0.68 0.72 0.84 1.00
2.07 2.09 2.04 2.01 1.89 1.78 1.65 1.48 1.31 1.23 1.14 1.05 0.97 0.89 0.81 0.75 0.74 0.73 0.73 0.70 0.66 0.60 0.60 0.60 0.61 0.60 0.48 0.44 0.42 0.41 0.47 0.58 0.60 0.61 0.65 0.67 0.64 0.60 0.64 0.70 0.79 0.94 1.07
1.87 1.94 2.00 1.98 1.92 1.81 1.60 1.46 1.33 1.18 1.11 1.01 0.86 0.76 0.71 0.67 0.65 0.66 0.66 0.64 0.62 0.60 0.57 0.55 0.56 0.60 0.57 0.50 0.43 0.40 0.48 0.56 0.57 0.55 0.55 0.55 0.58 0.62 0.71 0.85 1.07 1.21 1.33
1.74 1.88 2.01 2.07 1.99 1.87 1.57 1.41 1.27 1.07 0.92 0.77 0.67 0.65 0.65 0.59 0.55 0.54 0.56 0.57 0.58 0.57 0.52 0.50 0.52 0.56 0.55 0.42 0.36 0.36 0.43 0.51 0.56 0.60 0.60 0.53 0.50 0.61 0.76 1.00 1.29 1.43 1.49
1.74 1.81 1.84 1.84 1.81 1.71 1.49 1.36 1.19 0.99 0.79 0.65 0.58 0.61 0.57 0.48 0.44 0.48 0.54 0.52 0.49 0.50 0.50 0.49 0.48 0.45 0.38 0.33 0.29 0.29 0.33 0.41 0.51 0.58 0.66 0.64 0.57 0.63 0.84 1.05 1.23 1.39 1.42
1.58 1.66 1.65 1.63 1.53 1.42 1.30 1.21 1.07 0.83 0.65 0.59 0.57 0.59 0.56 0.39 0.35 0.44 0.47 0.46 0.50 0.49 0.45 0.44 0.42 0.36 0.34 0.27 0.23 0.23 0.23 0.25 0.41 0.58 0.63 0.65 0.62 0.67 0.88 1.05 1.29 1.49 1.57
1.32 1.36 1.29 1.20 1.18 1.15 1.07 0.99 0.84 0.67 0.57 0.56 0.60 0.58 0.53 0.42 0.34 0.38 0.41 0.43 0.46 0.42 0.35 0.35 0.36 0.30 0.30 0.25 0.17 0.16 0.17 0.19 0.30 0.45 0.52 0.58 0.63 0.78 1.09 1.26 1.42 1.59 1.69
1.03 1.04 1.01 0.93 0.90 0.90 0.85 0.75 0.61 0.55 0.56 0.59 0.59 0.57 0.52 0.43 0.36 0.34 0.31 0.33 0.35 0.34 0.31 0.33 0.35 0.33 0.30 0.24 0.20 0.21 0.22 0.23 0.29 0.43 0.56 0.68 0.76 0.96 1.27 1.48 1.66 1.71 1.62
0.74 0.74 0.78 0.75 0.67 0.65 0.65 0.59 0.50 0.46 0.53 0.53 0.49 0.46 0.40 0.39 0.38 0.31 0.21 0.21 0.22 0.21 0.25 0.30 0.29 0.28 0.26 0.17 0.18 0.20 0.20 0.22 0.26 0.38 0.59 0.77 0.92 1.14 1.36 1.54 1.60 1.58 1.47
0.61 0.64 0.68 0.65 0.59 0.57 0.55 0.49 0.41 0.39 0.47 0.49 0.46 0.40 0.35 0.34 0.31 0.33 0.26 0.17 0.15 0.14 0.13 0.16 0.16 0.16 0.17 0.15 0.16 0.19 0.21 0.24 0.31 0.41 0.62 0.76 0.87 1.07 1.30 1.44 1.41 1.30 1.23